When you browse on this site, cookies collect data to enhance your experience and personalize the content and advertising you see.
Visit our Privacy Policy to learn more. By continuing to use the site, you agree to this use of cookies and data.
  • In Hungary
  • List of Countries
  • For 7 days
  • Water Temperature
  • Satellite Maps
  • Weather Map
  • News
  • Weather Widgets
  • user-avatar
    Login

    Hourly Weather Barnsley

    Today, 17 January, Thursday

    Time Temperature Precipitation Wind Pressure Humidity
    00:00 +2°C° 0 mm 3 mps 740 mmHg 83%
    01:00 +2°C° 0 mm 3 mps 740 mmHg 82%
    02:00 +1°C° 0 mm 4 mps 741 mmHg 81%
    03:00 +1°C° 0 mm 4 mps 741 mmHg 81%
    04:00 0°C° 0.1 mm 5 mps 742 mmHg 75%
    05:00 0°C° 0.1 mm 5 mps 743 mmHg 70%
    06:00 -1°C° 0.1 mm 6 mps 744 mmHg 65%
    07:00 -2°C° 0 mm 6 mps 745 mmHg 64%
    08:00 -2°C° 0 mm 6 mps 745 mmHg 62%
    09:00 -2°C° 0 mm 6 mps 746 mmHg 60%
    10:00 -1°C° 0 mm 6 mps 747 mmHg 57%
    11:00 -1°C° 0 mm 6 mps 747 mmHg 54%
    12:00 0°C° 0 mm 7 mps 748 mmHg 52%
    13:00 +1°C° 0 mm 6 mps 749 mmHg 53%
    14:00 +2°C° 0 mm 5 mps 749 mmHg 54%
    15:00 +2°C° 0 mm 5 mps 750 mmHg 55%
    16:00 +1°C° 0 mm 4 mps 750 mmHg 57%
    17:00 +1°C° 0 mm 3 mps 751 mmHg 59%
    18:00 0°C° 0 mm 3 mps 751 mmHg 61%
    19:00 +1°C° 0 mm 2 mps 752 mmHg 62%
    20:00 +1°C° 0 mm 2 mps 752 mmHg 62%
    21:00 +1°C° 0 mm 2 mps 752 mmHg 63%
    22:00 +2°C° 0 mm 1 mps 752 mmHg 63%
    23:00 +2°C° 0 mm 1 mps 752 mmHg 62%

    Tomorrow, 18 January, Friday

    Time Temperature Precipitation Wind Pressure Humidity
    00:00 +2°C° 0 mm 1 mps 753 mmHg 62%
    01:00 +2°C° 0 mm 1 mps 752 mmHg 63%
    02:00 +2°C° 0 mm 1 mps 752 mmHg 63%
    03:00 +2°C° 0 mm 1 mps 752 mmHg 63%
    04:00 +2°C° 0 mm 1 mps 752 mmHg 64%
    05:00 +1°C° 0 mm 2 mps 752 mmHg 64%
    06:00 +1°C° 0 mm 2 mps 751 mmHg 65%
    07:00 -1°C° 0 mm 2 mps 751 mmHg 64%
    08:00 -1°C° 0 mm 3 mps 751 mmHg 64%
    09:00 -1°C° 0 mm 3 mps 751 mmHg 64%
    10:00 0°C° 0 mm 3 mps 751 mmHg 60%
    11:00 0°C° 0 mm 4 mps 751 mmHg 57%
    12:00 +1°C° 0 mm 4 mps 750 mmHg 54%
    13:00 +1°C° 0 mm 5 mps 750 mmHg 56%
    14:00 +1°C° 0 mm 5 mps 749 mmHg 59%
    15:00 +1°C° 0 mm 5 mps 749 mmHg 61%
    16:00 +1°C° 0.1 mm 5 mps 748 mmHg 65%
    17:00 +1°C° 0.1 mm 5 mps 748 mmHg 69%
    18:00 +1°C° 0.1 mm 5 mps 748 mmHg 72%
    19:00 +1°C° 0.2 mm 5 mps 748 mmHg 73%
    20:00 +1°C° 0.2 mm 5 mps 747 mmHg 74%
    21:00 +1°C° 0.2 mm 6 mps 747 mmHg 75%
    22:00 +1°C° 0.1 mm 5 mps 747 mmHg 77%
    23:00 +1°C° 0.1 mm 5 mps 746 mmHg 79%

    Day after tomorrow, 19 January, Saturday

    Time Temperature Precipitation Wind Pressure Humidity
    00:00 0°C° 0.1 mm 5 mps 746 mmHg 80%
    01:00 0°C° 0 mm 5 mps 746 mmHg 82%
    02:00 +1°C° 0 mm 5 mps 745 mmHg 84%
    03:00 +1°C° 0 mm 4 mps 745 mmHg 86%
    04:00 +1°C° 0.1 mm 4 mps 745 mmHg 87%
    05:00 +1°C° 0.1 mm 4 mps 744 mmHg 89%
    06:00 +1°C° 0.1 mm 4 mps 744 mmHg 91%
    07:00 +1°C° 0.4 mm 4 mps 744 mmHg 92%
    08:00 +1°C° 0.4 mm 4 mps 744 mmHg 92%
    09:00 +1°C° 0.4 mm 4 mps 744 mmHg 93%
    10:00 +3°C° 1 mm 3 mps 744 mmHg 93%
    11:00 +3°C° 1 mm 3 mps 744 mmHg 93%
    12:00 +3°C° 1 mm 3 mps 744 mmHg 92%
    13:00 +5°C° 0.1 mm 2 mps 743 mmHg 92%
    14:00 +5°C° 0.1 mm 2 mps 743 mmHg 91%
    15:00 +5°C° 0.1 mm 2 mps 743 mmHg 91%
    16:00 +5°C° 0.1 mm 2 mps 743 mmHg 92%
    17:00 +6°C° 0.1 mm 1 mps 744 mmHg 93%
    18:00 +5°C° 0.1 mm 1 mps 744 mmHg 95%
    19:00 +5°C° 0 mm 1 mps 744 mmHg 95%
    20:00 +5°C° 0 mm 1 mps 744 mmHg 95%
    21:00 +4°C° 0 mm 1 mps 745 mmHg 95%
    22:00 +5°C° 0.1 mm 1 mps 745 mmHg 95%
    23:00 +5°C° 0.1 mm 1 mps 745 mmHg 95%

    20 January, Sunday

    Time Temperature Precipitation Wind Pressure Humidity
    00:00 +5°C° 0.1 mm 1 mps 745 mmHg 95%
    01:00 +5°C° 0 mm 1 mps 746 mmHg 95%
    02:00 +5°C° 0 mm 1 mps 746 mmHg 95%
    03:00 +5°C° 0 mm 1 mps 746 mmHg 96%
    04:00 +5°C° 0 mm 1 mps 746 mmHg 96%
    05:00 +5°C° 0 mm 1 mps 747 mmHg 96%
    06:00 +5°C° 0 mm 1 mps 747 mmHg 96%
    07:00 +4°C° 0.1 mm 2 mps 748 mmHg 96%
    08:00 +4°C° 0.1 mm 2 mps 748 mmHg 95%
    09:00 +4°C° 0.1 mm 2 mps 749 mmHg 95%
    10:00 +3°C° 0.3 mm 3 mps 750 mmHg 91%
    11:00 +4°C° 0.3 mm 4 mps 751 mmHg 86%
    12:00 +4°C° 0.3 mm 4 mps 751 mmHg 82%
    13:00 +3°C° 0.1 mm 5 mps 752 mmHg 79%
    14:00 +2°C° 0.1 mm 5 mps 753 mmHg 75%
    15:00 +2°C° 0.1 mm 5 mps 753 mmHg 71%
    16:00 +2°C° 0 mm 5 mps 754 mmHg 71%
    17:00 +1°C° 0 mm 4 mps 754 mmHg 70%
    18:00 0°C° 0 mm 4 mps 755 mmHg 69%
    19:00 0°C° 0 mm 4 mps 755 mmHg 70%
    20:00 0°C° 0 mm 4 mps 756 mmHg 72%
    21:00 0°C° 0 mm 5 mps 756 mmHg 73%
    22:00 0°C° 0 mm 5 mps 757 mmHg 71%
    23:00 0°C° 0 mm 5 mps 757 mmHg 70%

    21 January, Monday

    Time Temperature Precipitation Wind Pressure Humidity
    00:00 0°C° 0 mm 5 mps 757 mmHg 68%
    01:00 -1°C° 0 mm 4 mps 757 mmHg 68%
    02:00 -1°C° 0 mm 4 mps 757 mmHg 69%
    03:00 -1°C° 0 mm 4 mps 757 mmHg 69%
    04:00 0°C° 0 mm 3 mps 757 mmHg 69%
    05:00 0°C° 0 mm 3 mps 757 mmHg 70%
    06:00 +1°C° 0 mm 2 mps 757 mmHg 71%
    07:00 +1°C° 0 mm 2 mps 756 mmHg 72%
    08:00 +1°C° 0 mm 2 mps 756 mmHg 74%
    09:00 +1°C° 0 mm 2 mps 756 mmHg 75%
    10:00 +2°C° 0 mm 2 mps 755 mmHg 75%
    11:00 +3°C° 0 mm 2 mps 754 mmHg 74%
    12:00 +3°C° 0 mm 3 mps 754 mmHg 73%
    13:00 +3°C° 0 mm 3 mps 753 mmHg 73%
    14:00 +3°C° 0 mm 3 mps 752 mmHg 72%
    15:00 +3°C° 0 mm 4 mps 751 mmHg 72%
    16:00 +1°C° 0 mm 4 mps 749 mmHg 74%
    17:00 +1°C° 0 mm 5 mps 748 mmHg 77%
    18:00 0°C° 0 mm 5 mps 746 mmHg 79%
    19:00 -1°C° 0.4 mm 6 mps 745 mmHg 80%
    20:00 +1°C° 0.4 mm 6 mps 743 mmHg 81%
    21:00 0°C° 0.4 mm 7 mps 742 mmHg 82%
    22:00 0°C° 0.8 mm 7 mps 741 mmHg 85%
    23:00 0°C° 0.8 mm 7 mps 740 mmHg 87%

    22 January, Tuesday

    Time Temperature Precipitation Wind Pressure Humidity
    00:00 0°C° 0.8 mm 7 mps 739 mmHg 90%
    01:00 +1°C° 0.3 mm 5 mps 738 mmHg 90%
    02:00 +1°C° 0.3 mm 4 mps 738 mmHg 90%
    03:00 +2°C° 0.3 mm 3 mps 737 mmHg 91%
    04:00 +2°C° 0 mm 3 mps 737 mmHg 90%
    05:00 +2°C° 0 mm 3 mps 737 mmHg 90%
    06:00 +1°C° 0 mm 3 mps 737 mmHg 89%
    07:00 +2°C° 0 mm 3 mps 737 mmHg 89%
    08:00 +2°C° 0 mm 3 mps 737 mmHg 88%
    09:00 +2°C° 0 mm 3 mps 738 mmHg 88%
    10:00 +2°C° 0 mm 3 mps 738 mmHg 86%
    11:00 +3°C° 0 mm 3 mps 738 mmHg 83%
    12:00 +5°C° 0 mm 2 mps 738 mmHg 81%
    13:00 +5°C° 0 mm 2 mps 738 mmHg 81%
    14:00 +4°C° 0 mm 2 mps 738 mmHg 81%
    15:00 +4°C° 0 mm 2 mps 738 mmHg 82%
    16:00 +4°C° 0 mm 2 mps 739 mmHg 84%
    17:00 +4°C° 0 mm 1 mps 739 mmHg 86%
    18:00 +3°C° 0 mm 1 mps 739 mmHg 89%
    19:00 +3°C° 0 mm 1 mps 740 mmHg 90%
    20:00 +3°C° 0 mm 1 mps 740 mmHg 91%
    21:00 +2°C° 0 mm 1 mps 741 mmHg 92%
    22:00 +2°C° 0 mm 1 mps 741 mmHg 93%
    23:00 +2°C° 0 mm 1 mps 742 mmHg 94%
    Show more